Meteo Giornale » Osservazioni meteo Stati Uniti (USA) » Anderson

ore: 16:55 - Osservazioni Meteo Anderson
Lat. 40° 7' N Lon. 85° 37' W Alt. 280 metri s.l.m.

nuvoloso

32 °C

Nuvoloso

Temp. 24 Ore

21 °C

33 °C

Sud-Ovest

18.5 Km/h

Dew point 20 °C

Umidità 49 %

Visibilità  10 Km

Il sole sorge alle ore 07:09

Il sole tramonta alle ore 20:15

Data e Ora Cielo e Fenomeni T °C DP °C Um. % Pres. hPa Vis. km Vento km/h
Oggi h: 16:55 nuvoloso Nuvoloso 32 20 49 1017 10 SO 18.5
Oggi h: 16:35 nuvoloso Nuvoloso 33 20 46 1017 10 SO 14.8
Oggi h: 08:15 sereno Sereno 23 19 78 1018 10 N 0
Oggi h: 07:55 sereno Sereno 22 19 83 1018 10 N 0
Oggi h: 07:35 sereno Sereno 22 19 83 1018 10 N 0
Oggi h: 07:15 sereno Sereno 22 19 83 1018 10 N 0
Oggi h: 06:55 sereno Sereno 22 19 83 1018 10 N 0
Oggi h: 06:35 sereno Sereno 22 19 83 1018 10 N 0
Oggi h: 06:15 sereno Sereno 22 19 83 1018 10 S/SO 7.4
Oggi h: 05:55 sereno Sereno 22 19 83 1018 10 S/SO 9.3
Oggi h: 05:35 sereno Sereno 22 19 83 1018 10 N 0
Oggi h: 05:15 sereno Sereno 21 19 88 1018 10 N 0
Oggi h: 04:55 sereno Sereno 22 20 88 1018 10 N 0
Oggi h: 04:35 sereno Sereno 21 20 94 1018 10 N 0
Oggi h: 04:15 sereno Sereno 21 20 94 1018 10 N 0
Oggi h: 03:55 sereno Sereno 21 20 94 1018 10 N 0
Oggi h: 03:35 sereno Sereno 22 20 88 1018 10 N 0
Oggi h: 03:15 sereno Sereno 22 19 83 1018 10 N 0
Oggi h: 02:55 sereno Sereno 23 19 78 1018 10 N 0
Oggi h: 02:35 sereno Sereno 24 19 73 1018 10 N 0
Oggi h: 02:15 sereno Sereno 23 19 78 1018 10 N 0
Oggi h: 01:55 sereno Sereno 23 20 83 1018 10 N 5.5
Oggi h: 01:35 sereno Sereno 23 20 83 1018 10 S 7.4
Oggi h: 01:15 sereno Sereno 23 20 83 1018 10 N 0
Oggi h: 00:55 sereno Sereno 23 20 83 1018 10 N 5.5
Oggi h: 00:35 sereno Sereno 23 20 83 1018 10 N 0
Oggi h: 00:15 sereno Sereno 24 20 78 1018 10 N 0
Ieri h: 23:55 sereno Sereno 24 20 78 1018 10 N 0
Ieri h: 23:35 sereno Sereno 23 20 83 1018 10 S 7.4
Ieri h: 23:15 sereno Sereno 23 20 83 1018 10 N 5.5
Ieri h: 22:55 sereno Sereno 22 20 88 1018 10 N 5.5
Ieri h: 22:35 sereno Sereno 23 21 88 1018 10 N 0
Ieri h: 22:15 sereno Sereno 23 21 88 1018 10 N 0
Ieri h: 21:55 sereno Sereno 23 21 88 1018 10 N 5.5
Ieri h: 21:35 sereno Sereno 23 21 88 1018 10 N 0
Ieri h: 21:15 sereno Sereno 23 21 88 1018 10 N 0
Ieri h: 20:55 sereno Sereno 23 21 88 1018 10 N 0
Ieri h: 20:35 sereno Sereno 24 21 83 1018 10 N 0
Ieri h: 20:15 sereno Sereno 24 21 83 1018 10 N 0
Ieri h: 19:55 sereno Sereno 25 21 78 1018 10 N 0
Ieri h: 19:35 sereno Sereno 26 21 73 1018 10 N 0
Ieri h: 19:15 sereno Sereno 26 22 78 1018 10 N 0
Ieri h: 18:55 sereno Sereno 28 19 58 1018 10 N 0
Ieri h: 18:35 sereno Sereno 28 19 58 1018 10 N 0
Ieri h: 18:15 sereno Sereno 29 19 54 1018 10 S/SO 11.1
Ieri h: 17:55 sereno Sereno 29 19 54 1018 10 N 5.5
Ieri h: 17:35 sereno Sereno 29 20 58 1017 10 S/SO 11.1